Location: Lafig�re
(44.4503°N, 4.0357°E)
Time: 14:22:09
(UTC+00:00)

deb Explorer IX - Pass Details

Date: 23 January 2021
Orbit: 537 x 1102 km, 38.8° (Epoch: 01 March)

Event Time Altitude Azimuth Distance (km) Brightness Sun altitude
Rises 20:16:21 0° 263° (W) 3,448 ? -38.2°
Reaches altitude 10° 20:19:11 10° 257° (WSW) 2,411 ? -38.7°
Enters shadow 20:20:56 19° 250° (WSW) 1,796 ? -39.0°
Maximum altitude 20:24:30 44° 187° (S) 994 - -39.6°
Drops below altitude 10° 20:29:03 10° 115° (ESE) 2,060 - -40.4°
Sets 20:31:18 0° 109° (ESE) 2,896 - -40.8°
